Location: Thompson
(55.7500°N, 97.8670°W)
Time: 21:16:10
(UTC-05:00)

Cosmos 1666 - Visible Passes

Search period start: 27 August 2016 00:00
Search period end: 06 September 2016 00:00
Orbit: 503 x 527 km, 82.5° (Epoch: 26 August)

Date Brightness Start Highest point End Pass type
(mag) Time Alt. Az. Time Alt. Az. Time Alt. Az.
27 Aug 5.7 00:44:10 10° WNW 00:45:33 12° NW 00:46:57 10° NW visible
27 Aug 4.7 21:17:20 10° ESE 21:18:48 12° E 21:20:18 10° ENE visible
27 Aug 2.6 22:51:25 21° SSW 22:53:52 88° W 22:57:43 10° NNE visible
28 Aug 5.6 00:28:22 10° W 00:30:15 13° WNW 00:32:09 10° NNW visible
28 Aug 2.5 22:35:55 18° S 22:38:40 79° E 22:42:30 10° NNE visible
29 Aug 5.5 00:12:40 10° W 00:14:56 15° WNW 00:17:13 10° NNW visible
29 Aug 2.6 22:20:20 14° S 22:23:28 66° E 22:27:16 10° NNE visible
29 Aug 5.4 23:57:05 10° WSW 23:59:38 17° WNW 00:02:13 10° NNW visible
30 Aug 2.7 22:04:42 11° S 22:08:17 56° E 22:12:03 10° NNE visible
30 Aug 5.3 23:41:32 10° WSW 23:44:21 19° WNW 23:47:11 10° NNW visible
31 Aug 2.9 21:49:27 10° S 21:53:05 47° E 21:56:48 10° NNE visible
31 Aug 5.1 23:26:02 10° WSW 23:29:03 22° WNW 23:32:07 10° N visible
01 Sep 3.1 21:34:21 10° SSE 21:37:55 40° E 21:41:32 10° NNE visible
01 Sep 4.9 23:10:35 10° WSW 23:13:46 25° WNW 23:17:01 10° N visible
02 Sep 3.4 21:19:17 10° SSE 21:22:44 34° E 21:26:14 10° NNE visible
02 Sep 4.7 22:55:09 10° SW 22:58:30 29° WNW 23:01:54 10° N visible
03 Sep 3.6 21:04:16 10° SSE 21:07:34 29° E 21:10:56 10° NNE visible
03 Sep 4.4 22:39:45 10° SW 22:43:14 33° WNW 22:46:46 10° N visible
04 Sep 3.8 20:49:15 10° SE 20:52:25 25° E 20:55:37 10° NNE visible
04 Sep 4.2 22:24:23 10° SW 22:27:58 38° WNW 22:31:37 10° N visible
05 Sep 3.8 22:09:03 10° SSW 22:12:43 45° WNW 22:16:27 10° N visible
